Flag for Canada Weather past 2 weeks in Regina, Saskatchewan, Canada

Now
55 °F

Passing clouds.


Feels Like: 55 °F
Forecast: 47 / 73 °F
Wind: 5 mph from Southeast

Location: Regina Weather Station

Current Time: May 28, 2015 at 5:14:53 AM

Latest Report: May 28, 2015 at 4:00 AM


Visibility: 15 mi

Pressure: 29.93 "Hg

Humidity: 82%

Dew point: 50 °F

Location of ReginaLocation

Historic Weather in Regina — Graph

°F

Regina temperature yesterday

Maximum temperature yesterday: 73 °F (at 5:00 PM)
Minimum temperature yesterday: 52 °F (at 5:00 AM)
Average temperature yesterday: 63 °F

Past Weeks' High & Low Weather Summary

 TemperatureHumidityPressure
High82 °F (May 26, 2:00 PM)93% (May 13, 4:00 AM)30.56 "Hg (May 13, 4:00 AM)
Low25 °F (May 18, 2:00 AM)15% (May 21, 2:00 PM)29.82 "Hg (May 25, 8:00 PM)
Average56 °F49%30.11 "Hg
* Reported May 13 4:00 AM — May 28 4:00 AM, Regina, Weather by CustomWeather, © 2015

Note: Actual official high and low records may vary slightly from our data, if they occured in-between our weather recording intervals... More about our weather records

Advertising

Regina weather history for previous 24 hours

 ConditionsComfort  
Time TempWeatherWind HumidityBarometerVisibility
4:00 AM
Thu, May 28
55 °FPassing clouds.5 mph82%29.93 "Hg15 mi
3:00 AM55 °FOvercast.5 mph77%29.93 "Hg15 mi
2:00 AM54 °FMostly cloudy.5 mph82%29.94 "Hg15 mi
1:00 AM57 °FPassing clouds.5 mph77%29.96 "Hg15 mi
12:00 AM59 °FPartly cloudy.3 mph72%29.96 "Hg15 mi
11:00 PM
Wed, May 27
55 °FPassing clouds.5 mph72%29.97 "Hg15 mi
10:00 PM61 °FPassing clouds.7 mph63%29.96 "Hg15 mi
9:00 PM64 °FPassing clouds.12 mph56%29.96 "Hg15 mi
8:00 PM68 °FPartly sunny.9 mph49%29.95 "Hg15 mi
7:00 PM70 °FPartly sunny.12 mph46%29.95 "Hg12 mi
6:00 PM72 °FPartly sunny.12 mph44%29.94 "Hg12 mi
5:00 PM73 °FPartly sunny.10 mph41%29.95 "Hg12 mi
4:00 PM72 °FMore clouds than sun.12 mph41%29.96 "Hg12 mi
3:00 PM70 °FPartly sunny.5 mph43%29.97 "Hg15 mi
2:00 PM70 °FBroken clouds.12 mph46%29.98 "Hg15 mi
1:00 PM68 °FMostly cloudy.10 mph49%29.99 "Hg12 mi
12:00 PM66 °FBroken clouds.12 mph56%30.00 "Hg12 mi
11:00 AM64 °FPartly sunny.14 mph56%30.00 "Hg12 mi
10:00 AM63 °FPartly sunny.14 mph59%30.01 "Hg12 mi
9:00 AM59 °FPartly sunny.13 mph63%30.01 "Hg15 mi
8:00 AM55 °FScattered clouds.14 mph72%30.01 "Hg15 mi
7:00 AM54 °FPartly sunny.12 mph77%30.00 "Hg15 mi
6:00 AM52 °FScattered clouds.12 mph77%29.98 "Hg15 mi
5:00 AM52 °FPartly sunny.12 mph77%29.97 "Hg15 mi
Weather by CustomWeather, © 2015

See weather overviewHow to use our weather pages